Location: Hilton Head Island
(32.2163°N, 80.7526°W)
Time: 03:11:13
(UTC-05:00)

Altair - All Passes

Search period start: 16 February 2026 00:00
Search period end: 26 February 2026 00:00
Orbit: 1502 x 1682 km, 47.2° (Epoch: 14 February)

Date Brightness Start Highest point End Pass type
(mag) Time Alt. Az. Time Alt. Az. Time Alt. Az.
16 Feb - 02:39:09 10° S 02:46:11 25° SE 02:53:14 10° ENE visible
16 Feb - 04:40:48 10° SW 04:49:59 87° NW 04:59:25 10° NE visible
16 Feb - 06:47:13 10° W 06:55:40 38° NNW 07:04:25 10° NE daylight
16 Feb - 08:54:26 10° NW 09:02:48 34° N 09:11:27 10° ENE daylight
16 Feb - 10:59:38 10° NW 11:09:13 64° NNE 11:19:07 10° ESE daylight
16 Feb - 13:04:44 10° WNW 13:13:50 45° SW 13:23:11 10° SSE daylight
17 Feb - 02:14:29 10° S 02:21:04 22° SE 02:27:40 10° E visible
17 Feb - 04:15:35 10° SW 04:24:46 87° SE 04:34:09 10° NE visible
17 Feb - 06:21:47 10° W 06:30:18 40° NNW 06:39:06 10° NE visible
17 Feb - 08:29:06 10° NW 08:37:23 33° N 08:45:55 10° ENE daylight
17 Feb - 10:34:25 10° NW 10:43:54 60° NNE 10:53:42 10° ESE daylight
17 Feb - 12:39:23 10° WNW 12:48:38 49° SW 12:58:09 10° SSE daylight
18 Feb - 01:49:55 10° SSE 01:55:57 20° SE 02:01:59 10° E visible
18 Feb - 03:50:24 10° SW 03:59:34 81° SE 04:08:53 10° NE visible
18 Feb - 05:56:21 10° W 06:04:56 42° NNW 06:13:47 10° NE visible
18 Feb - 08:03:45 10° NW 08:11:57 32° N 08:20:24 10° ENE daylight
18 Feb - 10:09:12 10° NW 10:18:34 56° NNE 10:28:16 10° ESE daylight
18 Feb - 12:14:04 10° WNW 12:23:25 54° SW 12:33:05 10° SSE daylight
18 Feb - 14:25:43 10° WSW 14:26:54 10° WSW 14:28:04 10° SW daylight
19 Feb - 01:25:28 10° SSE 01:30:50 17° SE 01:36:13 10° E visible
19 Feb - 03:25:15 10° SW 03:34:22 74° SE 03:43:38 10° NE visible
19 Feb - 05:30:56 10° W 05:39:36 44° NNW 05:48:29 10° NE visible
19 Feb - 07:38:24 10° WNW 07:46:32 32° N 07:54:55 10° ENE daylight
19 Feb - 09:43:58 10° NW 09:53:14 53° NNE 10:02:50 10° ESE daylight
19 Feb - 11:48:46 10° WNW 11:58:12 59° SW 12:07:58 10° SSE daylight
19 Feb - 13:58:16 10° W 14:01:45 12° WSW 14:05:17 10° SW daylight
20 Feb - 01:01:10 10° SSE 01:05:44 15° ESE 01:10:17 10° E visible
20 Feb - 03:00:07 10° SW 03:09:10 68° SE 03:18:21 10° NE visible
20 Feb - 05:05:32 10° W 05:14:15 46° NNW 05:23:12 10° NE visible
20 Feb - 07:13:01 10° WNW 07:21:06 32° N 07:29:26 10° ENE daylight
20 Feb - 09:18:44 10° NW 09:27:54 50° NNE 09:37:22 10° E daylight
20 Feb - 11:23:29 10° WNW 11:32:59 64° SW 11:42:50 10° SE daylight
20 Feb - 13:31:55 10° W 13:36:36 14° WSW 13:41:22 10° SSW daylight
21 Feb - 00:37:11 10° SE 00:40:38 13° ESE 00:44:04 10° E night (unlit)
21 Feb - 02:35:01 10° SSW 02:43:59 63° SE 02:53:04 10° ENE visible
21 Feb - 04:40:08 10° W 04:48:55 48° NNW 04:57:56 10° NE visible
21 Feb - 06:47:37 10° WNW 06:55:41 32° N 07:03:58 10° ENE daylight
21 Feb - 08:53:31 10° NW 09:02:33 47° NNE 09:11:54 10° E daylight
21 Feb - 10:58:13 10° NW 11:07:46 70° SW 11:17:39 10° SE daylight
21 Feb - 13:05:54 10° W 13:11:28 17° WSW 13:17:07 10° SSW daylight
22 Feb - 00:14:04 10° SE 00:15:32 10° ESE 00:16:59 10° ESE night (unlit)
22 Feb - 02:09:56 10° SSW 02:18:49 57° SE 02:27:46 10° ENE visible
22 Feb - 04:14:45 10° WSW 04:23:36 51° NNW 04:32:40 10° NE visible
22 Feb - 06:22:14 10° WNW 06:30:16 32° N 06:38:31 10° ENE visible
22 Feb - 08:28:17 10° NW 08:37:11 44° NNE 08:46:25 10° E daylight
22 Feb - 10:32:58 10° NW 10:42:32 75° SW 10:52:27 10° SE daylight
22 Feb - 12:40:05 10° W 12:46:19 19° SW 12:52:41 10° SSW daylight
23 Feb - 01:44:53 10° SSW 01:53:40 52° SE 02:02:27 10° ENE visible
23 Feb - 03:49:23 10° WSW 03:58:18 55° NNW 04:07:24 10° NE visible
23 Feb - 05:56:48 10° WNW 06:04:50 32° N 06:13:05 10° ENE visible
23 Feb - 08:03:02 10° NW 08:11:50 42° NNE 08:20:55 10° E daylight
23 Feb - 10:07:43 10° NW 10:17:17 81° SW 10:27:13 10° SE daylight
23 Feb - 12:14:23 10° W 12:21:09 22° SW 12:28:06 10° S daylight
24 Feb - 01:19:52 10° SSW 01:28:30 47° SE 01:37:08 10° ENE visible
24 Feb - 03:24:01 10° WSW 03:33:01 58° NNW 03:42:10 10° NE visible
24 Feb - 05:31:23 10° WNW 05:39:26 32° N 05:47:40 10° NE visible
24 Feb - 07:37:47 10° NW 07:46:27 40° NNE 07:55:24 10° E daylight
24 Feb - 09:42:29 10° NW 09:52:03 87° SW 10:01:58 10° SE daylight
24 Feb - 11:48:46 10° WNW 11:56:00 24° SW 12:03:26 10° S daylight
25 Feb - 00:54:54 10° SSW 01:03:21 42° SE 01:11:47 10° ENE visible
25 Feb - 02:58:41 10° WSW 03:07:45 62° NNW 03:16:55 10° NE visible
25 Feb - 05:05:57 10° WNW 05:14:01 33° N 05:22:16 10° NE visible
25 Feb - 07:12:31 10° NW 07:21:05 38° NNE 07:29:53 10° E daylight
25 Feb - 09:17:16 10° NW 09:26:48 87° NE 09:36:41 10° SE daylight
25 Feb - 11:23:13 10° WNW 11:30:50 27° SW 11:38:41 10° S daylight
